Weather History for KMEM - July, 2014

Change the Weather History Date:

Tuesday, July 1, 2014

  Actual Average Record
Temperature  
Mean Temperature 82 °F 82 °F  
Max Temperature 91 °F 91 °F 103 °F (1954)
Min Temperature 73 °F 73 °F 59 °F (1943)
Degree Days  
Heating Degree Days 0 0  
Month to date heating degree days 0 0  
Since 1 June heating degree days 0 0  
Since 1 July heating degree days 0 0  
Cooling Degree Days 17 17  
Month to date cooling degree days 17 17  
Year to date cooling degree days 765 776  
Since 1 June cooling degree days 454 455  
Growing Degree Days 32 (Base 50)    
Moisture  
Dew Point 72 °F    
Average Humidity 77    
Maximum Humidity 94    
Minimum Humidity 59    
Precipitation  
Precipitation 0.01 in 0.13 in 2.24 in (1989)
Month to date precipitation 0.01 0.13  
Year to date precipitation 39.37 28.04  
Snow  
Snow 0.00 in 0.00 in - ()
Month to date snowfall 0.0 0.0  
Since 1 June snowfall 0.0 0.0  
Since 1 July snowfall 0.0 0.0  
Snow Depth 0.00 in    
Sea Level Pressure  
Sea Level Pressure 29.93 in    
Wind  
Wind Speed 9 mph (WSW)    
Max Wind Speed 26 mph    
Max Gust Speed 36 mph    
Visibility 9 miles    
Events Rain    
T = Trace of Precipitation, MM = Missing Value Source: NWS Daily Summary

Daily Weather History Graph

Daily Weather History Graph

Search for Another Location

Airport or City:

Trip Planner

Search our weather history database for the weather conditions in past years. The results will help you decide how hot, cold, wet, or windy it might be!

Date:

Astronomy

Jul. 01, 2014 Rise Set
Actual Time 5:49 AM CDT 8:18 PM CDT
Civil Twilight 5:19 AM CDT 8:47 PM CDT
Nautical Twilight 4:43 AM CDT 9:24 PM CDT
Astronomical Twilight 4:02 AM CDT 10:04 PM CDT
Moon 9:47 AM CDT (7/1) 10:52 PM CDT (7/1)
Length of Visible Light 15h 27m
Length of Day
14h 28m
Waxing Crescent, 17% of the Moon is Illuminated
Jul 1
Waxing Crescent
Jul 5
First Quarter
Jul 12
Full
Jul 18
Last Quarter
Jul 26
New

Hourly Weather History & Observations

Time (CDT) Temp. Heat Index Dew Point Humidity Pressure Visibility Wind Dir Wind Speed Gust Speed Precip Events Conditions
12:54 AM 81.0 °F 85.8 °F 73.0 °F 77% 29.86 in 8.0 mi SSW 12.7 mph 24.2 mph N/A   Clear
1:54 AM 80.1 °F 84.2 °F 73.0 °F 79% 29.87 in 8.0 mi SW 6.9 mph - N/A   Clear
2:54 AM 79.0 °F - 73.0 °F 82% 29.88 in 7.0 mi SW 10.4 mph - N/A   Clear
3:54 AM 78.1 °F - 73.0 °F 84% 29.92 in 7.0 mi SW 5.8 mph - N/A   Clear
4:54 AM 77.0 °F - 73.0 °F 88% 29.94 in 7.0 mi SW 4.6 mph - N/A   Clear
5:54 AM 75.9 °F - 73.0 °F 91% 29.96 in 7.0 mi SSW 4.6 mph - N/A   Partly Cloudy
6:54 AM 78.8 °F - 73.4 °F 83% 29.96 in 7.0 mi SSW 8.1 mph - N/A   Clear
7:54 AM 80.1 °F 83.8 °F 72.0 °F 76% 29.97 in 8.0 mi SW 10.4 mph - N/A   Partly Cloudy
8:54 AM 82.0 °F 87.4 °F 73.0 °F 74% 29.97 in 10.0 mi WSW 9.2 mph 18.4 mph N/A   Partly Cloudy
9:54 AM 84.0 °F 90.2 °F 73.0 °F 69% 29.94 in 10.0 mi SW 9.2 mph - N/A   Clear
10:54 AM 87.1 °F 94.5 °F 73.0 °F 63% 29.94 in 10.0 mi WSW 10.4 mph - N/A   Scattered Clouds
11:54 AM 88.0 °F 95.6 °F 73.0 °F 61% 29.93 in 10.0 mi SW 9.2 mph - N/A   Scattered Clouds
12:54 PM 89.6 °F 98.2 °F 73.4 °F 59% 29.93 in 10.0 mi SW 9.2 mph - N/A   Partly Cloudy
1:54 PM 90.0 °F 97.9 °F 73.0 °F 57% 29.91 in 10.0 mi WSW 10.4 mph 20.7 mph N/A   Partly Cloudy
2:54 PM 90.0 °F 99.0 °F 73.9 °F 59% 29.89 in 10.0 mi SW 13.8 mph - N/A   Scattered Clouds
3:54 PM 90.0 °F 99.0 °F 73.9 °F 59% 29.88 in 10.0 mi WSW 12.7 mph 19.6 mph N/A   Partly Cloudy
4:54 PM 89.6 °F 99.8 °F 75.2 °F 62% 29.88 in 10.0 mi SSW 15.0 mph 21.9 mph N/A   Partly Cloudy
5:54 PM 89.1 °F 97.0 °F 73.0 °F 59% 29.85 in 10.0 mi SW 13.8 mph 24.2 mph N/A   Partly Cloudy
6:54 PM 87.1 °F 94.5 °F 73.0 °F 63% 29.88 in 10.0 mi SW 8.1 mph - N/A   Scattered Clouds
7:54 PM 84.9 °F 91.4 °F 73.0 °F 67% 29.90 in 10.0 mi SW 3.5 mph - N/A   Scattered Clouds
8:54 PM 84.0 °F 90.2 °F 73.0 °F 69% 29.93 in 10.0 mi WSW 3.5 mph - N/A   Scattered Clouds
9:37 PM 78.8 °F - 64.4 °F 61% 30.01 in 10.0 mi North 19.6 mph 35.7 mph N/A   Overcast
9:47 PM 77.0 °F - 64.4 °F 65% 30.01 in 10.0 mi North 23.0 mph 32.2 mph N/A   Overcast
9:54 PM 75.9 °F - 66.0 °F 71% 30.00 in 10.0 mi North 15.0 mph 31.1 mph 0.00 in Rain Light Rain
10:06 PM 73.4 °F - 66.2 °F 78% 30.00 in 10.0 mi North 5.8 mph - 0.00 in Rain Light Rain
10:54 PM 75.0 °F - 66.0 °F 73% 29.97 in 10.0 mi Calm Calm - 0.00 in   Mostly Cloudy
11:54 PM 75.0 °F - 66.9 °F 76% 29.98 in 10.0 mi West 8.1 mph 18.4 mph 0.01 in   Mostly Cloudy